LiveATC.Net - Listen to live air traffic control over the Internet! Contact LiveATC.net for advertising information


ICAO: KOXC  IATA: OXC   Airport: Waterbury-Oxford Airport
City: Oxford   State/Province: Connecticut
Country: United States   Continent: North America
KOXC METAR Weather: KOXC 102150Z 30006KT 10SM BKN048 02/M10 A2960
KOXC Flight Activity (FlightAware)
KOXC Airport Info   (AirNav) (iFlightPlanner)
KOXC VFR Sectional Chart   (iFlightPlanner) 
KOXC IFR Low Chart   (iFlightPlanner) 
KOXC Ground/Tower
Feed Status: DOWN
Last heard on: 2016-01-20 12:12:03 (21 days 9 hours 57 minutes ago)
KOXC Ground/Tower Audio Archives
FacilityFrequency
Oxford Ground121.650
Oxford Tower118.475


NOTICE

Unauthorized use prohibited. See LiveATC.net Terms of Service


Find LiveATC Audio Streams


Airport/ARTCC Code

Frequency
(e.g., 124.400, 128.75)
Site-wide search

Browse LiveATC Feeds
LiveATC Coverage Map
Top 50 LiveATC Feeds
Bad Weather Areas

LiveATC FAQ
Offer a LiveATC Feed
Contact LiveATC.net
Press Inquiries

LiveATC on iPhone
LiveATC on Android

Windows Phone
Windows 8/10

LiveATC Mobile
(Mobile browser)

ATC Audio Archives
Interesting Recordings

LiveATC Forums


Home Page
About LiveATC.net
Make a Donation
LiveATC Store

Terms of Use
Privacy Policy

Canadian Air Freqs

AIRMETs/SIGMETs

FAA Airport Status
Nat'l Airspace Status
Arrival Demand Charts


Server Software By:
Icecast.org
Liquidsoap

Please make a donation to help us keep growing!